Location: El Álamo
(40.2307°N, 3.9945°W)
Time: 03:42:29
(UTC+00:00)

USA 234 - Pass Details

Date: 19 May 2025
Orbit: 1097 x 1111 km, 123.0° (Epoch: 19 June)

Event Time Altitude Azimuth Distance (km) Brightness Sun altitude
Rises 20:51:21 0° 46° (NE) 3,926 6.1 -13.8°
Reaches altitude 10° 20:53:50 10° 46° (NE) 2,967 5.5 -14.1°
Maximum altitude 21:00:24 88° 319° (NW) 1,111 3.3 -15.0°
Drops below altitude 10° 21:06:59 10° 229° (SW) 2,964 5.6 -15.9°
Sets 21:09:27 0° 230° (SW) 3,921 6.2 -16.3°
